This is the latest recevied weather packets stored in our database for station/object KC5EZZ-2. If no packets are shown the sender has not sent any weather packets the latest 10 day(s).
| Time | Temp. | Humidity | Pressure | Rain* | Wind** | Luminosity | Snow |
|---|---|---|---|---|---|---|---|
| 1787640816 | 28.89° C | - | - | 0 mm | 4.02 m/s, 183° | - | - |
| 1787640516 | 28.89° C | - | - | 0 mm | 3.58 m/s, 191° | - | - |
| 1787640217 | 28.89° C | - | - | 0 mm | 4.02 m/s, 183° | - | - |
| 1787639914 | 28.89° C | - | - | 0 mm | 4.47 m/s, 174° | - | - |
| 1787639798 | 26.11° C | - | - | 0 mm | 0 m/s | - | - |
| 1787639615 | 28.89° C | - | - | 0 mm | 4.47 m/s, 169° | - | - |
| 1787639315 | 28.89° C | - | - | 0 mm | 3.58 m/s, 191° | - | - |
| 1787639013 | 28.89° C | - | - | 0 mm | 4.47 m/s, 177° | - | - |
| 1787638891 | 26.67° C | - | - | 0 mm | 0 m/s | - | - |
| 1787638713 | 28.89° C | - | - | 0 mm | 3.58 m/s, 183° | - | - |
| 1787638413 | 28.33° C | - | - | 0 mm | 3.58 m/s, 179° | - | - |
| 1787638111 | 28.33° C | - | - | 0 mm | 2.68 m/s, 176° | - | - |
| 1787637811 | 28.33° C | - | - | 0 mm | 3.58 m/s, 153° | - | - |
| 1787637512 | 28.33° C | - | - | 0 mm | 3.13 m/s, 176° | - | - |
| 1787637209 | 28.33° C | - | - | 0 mm | 2.68 m/s, 170° | - | - |
| 1787636910 | 28.33° C | - | - | 0 mm | 2.24 m/s, 169° | - | - |
| 1787636610 | 28.33° C | - | - | 0 mm | 2.24 m/s, 186° | - | - |
| 1787636308 | 28.33° C | - | - | 0 mm | 2.24 m/s, 158° | - | - |
| 1787636008 | 28.33° C | - | - | 0 mm | 2.24 m/s, 159° | - | - |
| 1787635709 | 28.33° C | - | - | 0 mm | 1.79 m/s, 165° | - | - |
| 1787635406 | 28.33° C | - | - | 0 mm | 2.24 m/s, 150° | - | - |
| 1787635106 | 28.33° C | - | - | 0 mm | 1.79 m/s, 152° | - | - |
| 1787634807 | 28.33° C | - | - | 0 mm | 2.68 m/s, 176° | - | - |
| 1787634504 | 28.89° C | - | - | 0 mm | 2.68 m/s, 158° | - | - |
| 1787634205 | 28.89° C | - | - | 0 mm | 2.68 m/s, 149° | - | - |
* Rain latest hour (hover to see other rain measurements)
** Current wind speed in m/s (hover to see current wind gust speed)